,,,PA_Meas_PMT16A,,PR_Meas_QMR101_102,,RH_Meas_QMH101,,SR_Meas_QMS101,,TA_Meas_QMH101,,GenWind,,GenWind,
date,time,status,PA,status,PR,status,RH,status,SR,status,TA,status,DirAvg,status,SpdAvg,
2011-10-14, 00:00:05,VALID,1010.958,VALID,0.0,VALID,104.0,VALID,0.0,VALID,23.655,VALID,33.0,VALID,1.052,
2011-10-14, 00:01:04,VALID,1010.961,VALID,0.0,VALID,104.0,VALID,0.0,VALID,23.636,VALID,34.0,VALID,0.301,
2011-10-14, 00:02:04,VALID,1010.925,VALID,0.0,VALID,104.0,VALID,0.0,VALID,23.636,VALID,34.0,VALID,0.738,
2011-10-14, 00:03:04,VALID,1010.923,VALID,0.0,VALID,104.0,VALID,0.0,VALID,23.616,VALID,23.0,VALID,1.399,
2011-10-14, 00:04:04,VALID,1010.943,VALID,0.0,VALID,104.0,VALID,0.0,VALID,23.636,VALID,33.0,VALID,0.679,
2011-10-14, 00:05:04,VALID,1010.945,VALID,0.0,VALID,104.0,VALID,0.0,VALID,23.636,VALID,29.0,VALID,0.946,
2011-10-14, 00:06:04,VALID,1010.965,VALID,0.0,VALID,104.0,VALID,0.0,VALID,23.636,VALID,44.0,VALID,1.136,
2011-10-14, 00:07:04,VALID,1010.951,VALID,0.0,VALID,104.0,VALID,0.0,VALID,23.636,VALID,41.0,VALID,0.255,
2011-10-14, 00:08:04,VALID,1010.943,VALID,0.0,VALID,104.0,VALID,0.0,VALID,23.616,VALID,41.0,VALID,0.223,
2011-10-14, 00:09:04,VALID,1010.966,VALID,0.0,VALID,104.0,VALID,0.0,VALID,23.616,VALID,30.0,VALID,0.37,
2011-10-14, 00:10:04,VALID,1010.938,VALID,0.0,VALID,104.0,VALID,0.0,VALID,23.636,VALID,30.0,VALID,0.472,
2011-10-14, 00:11:04,VALID,1010.928,VALID,0.0,VALID,104.0,VALID,0.0,VALID,23.636,VALID,67.0,VALID,1.003,
2011-10-14, 00:12:04,VALID,1010.934,VALID,0.5,VALID,104.0,VALID,0.0,VALID,23.636,VALID,59.0,VALID,0.436,
2011-10-14, 00:13:04,VALID,1010.92,VALID,0.0,VALID,104.0,VALID,0.0,VALID,23.657,VALID,53.0,VALID,0.714,
2011-10-14, 00:14:04,VALID,1010.905,VALID,0.0,VALID,104.0,VALID,0.0,VALID,23.636,VALID,52.0,VALID,0.256,
2011-10-14, 00:15:04,VALID,1010.873,VALID,0.0,VALID,104.0,VALID,0.0,VALID,23.636,VALID,45.0,VALID,0.478,
2011-10-14, 00:16:04,VALID,1010.899,VALID,0.0,VALID,104.0,VALID,0.0,VALID,23.636,VALID,46.0,VALID,0.322,
2011-10-14, 00:17:04,VALID,1010.873,VALID,0.0,VALID,104.0,VALID,0.0,VALID,23.655,VALID,63.0,VALID,0.866,
2011-10-14, 00:18:04,VALID,1010.871,VALID,0.0,VALID,104.0,VALID,0.0,VALID,23.676,VALID,67.0,VALID,0.413,
2011-10-14, 00:19:04,VALID,1010.867,VALID,0.0,VALID,104.0,VALID,0.0,VALID,23.636,VALID,54.0,VALID,0.729,
2011-10-14, 00:20:04,VALID,1010.866,VALID,0.0,VALID,104.0,VALID,0.0,VALID,23.636,VALID,74.0,VALID,0.851,
2011-10-14, 00:21:04,VALID,1010.845,VALID,0.0,VALID,104.0,VALID,0.0,VALID,23.657,VALID,88.0,VALID,1.257,
2011-10-14, 00:22:04,VALID,1010.826,VALID,0.0,VALID,104.0,VALID,0.0,VALID,23.636,VALID,60.0,VALID,0.599,
2011-10-14, 00:23:04,VALID,1010.753,VALID,0.0,VALID,104.0,VALID,0.0,VALID,23.675,VALID,73.0,VALID,1.045,
2011-10-14, 00:24:04,VALID,1010.743,VALID,0.0,VALID,104.0,VALID,0.0,VALID,23.636,VALID,79.0,VALID,0.741,
2011-10-14, 00:25:04,VALID,1010.691,VALID,0.0,VALID,104.0,VALID,0.0,VALID,23.636,VALID,79.0,VALID,0.961,
2011-10-14, 00:26:04,VALID,1010.673,VALID,0.0,VALID,104.0,VALID,0.0,VALID,23.655,VALID,79.0,VALID,0.719,
2011-10-14, 00:27:04,VALID,1010.651,VALID,0.0,VALID,104.0,VALID,0.0,VALID,23.636,VALID,65.0,VALID,1.591,
2011-10-14, 00:28:04,VALID,1010.631,VALID,0.0,VALID,104.0,VALID,0.0,VALID,23.636,VALID,63.0,VALID,0.962,
2011-10-14, 00:29:04,VALID,1010.625,VALID,0.0,VALID,104.0,VALID,0.0,VALID,23.636,VALID,48.0,VALID,0.716,
2011-10-14, 00:30:04,VALID,1010.57,VALID,0.0,VALID,104.0,VALID,0.0,VALID,23.634,VALID,81.0,VALID,1.292,
2011-10-14, 00:31:04,VALID,1010.56,VALID,0.0,VALID,104.0,VALID,0.112,VALID,23.655,VALID,78.0,VALID,0.873,
2011-10-14, 00:32:04,VALID,1010.551,VALID,0.0,VALID,104.0,VALID,0.112,VALID,23.614,VALID,65.0,VALID,0.971,
2011-10-14, 00:33:04,VALID,1010.555,VALID,0.0,VALID,104.0,VALID,0.112,VALID,23.634,VALID,60.0,VALID,0.798,
2011-10-14, 00:34:04,VALID,1010.539,VALID,0.0,VALID,104.0,VALID,0.112,VALID,23.614,VALID,96.0,VALID,0.943,
2011-10-14, 00:35:04,VALID,1010.528,VALID,0.0,VALID,104.0,VALID,0.0,VALID,23.634,VALID,82.0,VALID,0.481,
2011-10-14, 00:36:04,VALID,1010.503,VALID,0.0,VALID,104.0,VALID,0.112,VALID,23.634,VALID,72.0,VALID,0.64,
2011-10-14, 00:37:04,VALID,1010.481,VALID,0.0,VALID,104.0,VALID,0.112,VALID,23.634,VALID,76.0,VALID,0.807,
2011-10-14, 00:38:04,VALID,1010.455,VALID,0.0,VALID,104.0,VALID,0.112,VALID,23.612,VALID,80.0,VALID,1.256,
2011-10-14, 00:39:04,VALID,1010.399,VALID,0.0,VALID,104.0,VALID,0.112,VALID,23.614,VALID,75.0,VALID,1.201,
2011-10-14, 00:40:04,VALID,1010.391,VALID,0.0,VALID,104.0,VALID,0.112,VALID,23.636,VALID,75.0,VALID,0.955,
2011-10-14, 00:41:04,VALID,1010.371,VALID,0.0,VALID,104.0,VALID,0.112,VALID,23.614,VALID,77.0,VALID,0.45,
2011-10-14, 00:42:04,VALID,1010.356,VALID,0.0,VALID,104.0,VALID,0.112,VALID,23.634,VALID,82.0,VALID,0.404,
2011-10-14, 00:43:04,VALID,1010.348,VALID,0.0,VALID,104.0,VALID,0.112,VALID,23.614,VALID,82.0,VALID,0.576,
2011-10-14, 00:44:04,VALID,1010.315,VALID,0.0,VALID,104.0,VALID,0.112,VALID,23.614,VALID,135.0,VALID,1.211,
2011-10-14, 00:45:04,VALID,1010.318,VALID,0.0,VALID,104.0,VALID,0.0,VALID,23.637,VALID,132.0,VALID,0.768,
2011-10-14, 00:46:04,VALID,1010.27,VALID,0.0,VALID,104.0,VALID,0.0,VALID,23.657,VALID,130.0,VALID,0.495,
2011-10-14, 00:47:04,VALID,1010.255,VALID,0.0,VALID,104.0,VALID,0.0,VALID,23.616,VALID,126.0,VALID,0.82,
2011-10-14, 00:48:04,VALID,1010.238,VALID,0.0,VALID,104.0,VALID,0.0,VALID,23.637,VALID,105.0,VALID,0.48,
2011-10-14, 00:49:04,VALID,1010.253,VALID,0.0,VALID,104.0,VALID,0.0,VALID,23.636,VALID,110.0,VALID,0.534,
2011-10-14, 00:50:04,VALID,1010.227,VALID,0.0,VALID,104.0,VALID,0.0,VALID,23.637,VALID,95.0,VALID,0.79,
2011-10-14, 00:51:04,VALID,1010.224,VALID,0.0,VALID,104.0,VALID,0.0,VALID,23.616,VALID,81.0,VALID,0.53,
2011-10-14, 00:52:04,VALID,1010.239,VALID,0.0,VALID,104.0,VALID,0.0,VALID,23.597,VALID,95.0,VALID,0.845,
2011-10-14, 00:53:04,VALID,1010.214,VALID,0.0,VALID,104.0,VALID,0.0,VALID,23.597,VALID,101.0,VALID,0.895,
2011-10-14, 00:54:04,VALID,1010.214,VALID,0.0,VALID,104.0,VALID,0.0,VALID,23.597,VALID,78.0,VALID,0.755,
2011-10-14, 00:55:04,VALID,1010.203,VALID,0.0,VALID,104.0,VALID,0.0,VALID,23.597,VALID,77.0,VALID,1.086,
2011-10-14, 00:56:04,VALID,1010.167,VALID,0.0,VALID,104.0,VALID,0.0,VALID,23.577,VALID,105.0,VALID,0.793,
2011-10-14, 00:57:04,VALID,1010.176,VALID,0.0,VALID,104.0,VALID,0.0,VALID,23.597,VALID,105.0,VALID,0.299,
2011-10-14, 00:58:04,VALID,1010.153,VALID,0.0,VALID,104.0,VALID,0.0,VALID,23.597,VALID,105.0,VALID,0.177,
2011-10-14, 00:59:04,VALID,1010.157,VALID,0.0,VALID,104.0,VALID,0.0,VALID,23.597,VALID,90.0,VALID,0.884,
2011-10-14, 01:00:04,VALID,1010.141,VALID,0.0,VALID,104.0,VALID,0.0,VALID,23.577,VALID,115.0,VALID,1.264,
2011-10-14, 01:01:04,VALID,1010.17,VALID,0.0,VALID,104.0,VALID,0.0,VALID,23.577,VALID,88.0,VALID,0.988,
2011-10-14, 01:02:04,VALID,1010.165,VALID,0.0,VALID,104.0,VALID,0.0,VALID,23.597,VALID,91.0,VALID,0.503,
2011-10-14, 01:03:04,VALID,1010.157,VALID,0.0,VALID,104.0,VALID,0.0,VALID,23.577,VALID,92.0,VALID,0.973,
2011-10-14, 01:04:04,VALID,1010.208,VALID,0.0,VALID,104.0,VALID,0.0,VALID,23.598,VALID,106.0,VALID,0.803,
2011-10-14, 01:05:04,VALID,1010.157,VALID,0.0,VALID,104.0,VALID,0.0,VALID,23.618,VALID,112.0,VALID,1.22,
2011-10-14, 01:06:04,VALID,1010.22,VALID,0.0,VALID,104.0,VALID,0.0,VALID,23.577,VALID,106.0,VALID,0.715,
2011-10-14, 01:07:04,VALID,1010.225,VALID,0.0,VALID,104.0,VALID,0.0,VALID,23.597,VALID,101.0,VALID,1.054,
2011-10-14, 01:08:04,VALID,1010.226,VALID,0.0,VALID,104.0,VALID,0.0,VALID,23.597,VALID,113.0,VALID,0.804,
2011-10-14, 01:09:04,VALID,1010.261,VALID,0.0,VALID,104.0,VALID,0.0,VALID,23.577,VALID,97.0,VALID,0.799,
2011-10-14, 01:10:04,VALID,1010.269,VALID,0.0,VALID,104.0,VALID,0.0,VALID,23.597,VALID,98.0,VALID,0.819,
2011-10-14, 01:11:04,VALID,1010.296,VALID,0.0,VALID,104.0,VALID,0.0,VALID,23.597,VALID,132.0,VALID,0.714,
2011-10-14, 01:12:04,VALID,1010.334,VALID,0.0,VALID,104.0,VALID,0.0,VALID,23.577,VALID,118.0,VALID,1.299,
2011-10-14, 01:13:04,VALID,1010.344,VALID,0.0,VALID,104.0,VALID,0.0,VALID,23.577,VALID,134.0,VALID,0.847,
2011-10-14, 01:14:04,VALID,1010.366,VALID,0.0,VALID,104.0,VALID,0.0,VALID,23.579,VALID,110.0,VALID,1.095,
2011-10-14, 01:15:04,VALID,1010.409,VALID,0.0,VALID,104.0,VALID,0.0,VALID,23.558,VALID,113.0,VALID,0.47,
2011-10-14, 01:16:04,VALID,1010.411,VALID,0.0,VALID,104.0,VALID,0.0,VALID,23.598,VALID,114.0,VALID,0.539,
2011-10-14, 01:17:04,VALID,1010.433,VALID,0.0,VALID,104.0,VALID,0.0,VALID,23.558,VALID,120.0,VALID,1.121,
2011-10-14, 01:18:04,VALID,1010.444,VALID,0.0,VALID,104.0,VALID,0.0,VALID,23.558,VALID,119.0,VALID,1.277,
2011-10-14, 01:19:04,VALID,1010.439,VALID,0.0,VALID,104.0,VALID,0.0,VALID,23.579,VALID,104.0,VALID,0.7,
2011-10-14, 01:20:04,VALID,1010.471,VALID,0.0,VALID,104.0,VALID,0.0,VALID,23.558,VALID,106.0,VALID,0.373,
2011-10-14, 01:21:04,VALID,1010.486,VALID,0.0,VALID,104.0,VALID,0.0,VALID,23.579,VALID,79.0,VALID,0.927,
2011-10-14, 01:22:04,VALID,1010.486,VALID,0.0,VALID,104.0,VALID,0.0,VALID,23.558,VALID,98.0,VALID,1.079,
2011-10-14, 01:23:04,VALID,1010.486,VALID,0.0,VALID,104.0,VALID,0.0,VALID,23.558,VALID,96.0,VALID,0.695,
2011-10-14, 01:24:04,VALID,1010.523,VALID,0.0,VALID,104.0,VALID,0.0,VALID,23.556,VALID,86.0,VALID,0.661,
2011-10-14, 01:25:04,VALID,1010.521,VALID,0.0,VALID,104.0,VALID,0.0,VALID,23.577,VALID,75.0,VALID,0.533,
2011-10-14, 01:26:04,VALID,1010.496,VALID,0.0,VALID,104.0,VALID,0.0,VALID,23.577,VALID,73.0,VALID,0.504,
2011-10-14, 01:27:04,VALID,1010.485,VALID,0.0,VALID,104.0,VALID,0.0,VALID,23.577,VALID,63.0,VALID,0.696,
2011-10-14, 01:28:04,VALID,1010.484,VALID,0.0,VALID,104.0,VALID,0.0,VALID,23.579,VALID,74.0,VALID,0.917,
2011-10-14, 01:29:04,VALID,1010.478,VALID,0.0,VALID,104.0,VALID,0.0,VALID,23.558,VALID,67.0,VALID,1.121,
2011-10-14, 01:30:04,VALID,1010.474,VALID,0.0,VALID,104.0,VALID,0.0,VALID,23.558,VALID,73.0,VALID,0.684,
2011-10-14, 01:31:04,VALID,1010.481,VALID,0.0,VALID,104.0,VALID,0.0,VALID,23.577,VALID,78.0,VALID,0.412,
2011-10-14, 01:32:04,VALID,1010.503,VALID,0.0,VALID,104.0,VALID,0.0,VALID,23.558,VALID,72.0,VALID,0.73,
2011-10-14, 01:33:04,VALID,1010.504,VALID,0.0,VALID,104.0,VALID,0.0,VALID,23.538,VALID,105.0,VALID,1.161,
2011-10-14, 01:34:04,VALID,1010.537,VALID,0.0,VALID,104.0,VALID,0.0,VALID,23.558,VALID,106.0,VALID,0.895,
2011-10-14, 01:35:04,VALID,1010.526,VALID,0.0,VALID,104.0,VALID,0.0,VALID,23.558,VALID,84.0,VALID,0.765,
2011-10-14, 01:36:04,VALID,1010.526,VALID,0.0,VALID,104.0,VALID,0.0,VALID,23.558,VALID,89.0,VALID,1.107,
2011-10-14, 01:37:04,VALID,1010.5,VALID,0.0,VALID,104.0,VALID,0.0,VALID,23.558,VALID,88.0,VALID,0.598,
2011-10-14, 01:38:04,VALID,1010.524,VALID,0.0,VALID,104.0,VALID,0.0,VALID,23.558,VALID,73.0,VALID,1.058,
2011-10-14, 01:39:04,VALID,1010.498,VALID,0.0,VALID,104.0,VALID,0.0,VALID,23.558,VALID,65.0,VALID,0.377,
2011-10-14, 01:40:04,VALID,1010.503,VALID,0.0,VALID,104.0,VALID,0.0,VALID,23.558,VALID,65.0,VALID,0.282,
2011-10-14, 01:41:04,VALID,1010.496,VALID,0.0,VALID,104.0,VALID,0.0,VALID,23.558,VALID,63.0,VALID,0.801,
2011-10-14, 01:42:04,VALID,1010.479,VALID,0.0,VALID,104.0,VALID,0.0,VALID,23.538,VALID,62.0,VALID,0.659,
2011-10-14, 01:43:04,VALID,1010.476,VALID,0.0,VALID,104.0,VALID,0.0,VALID,23.538,VALID,70.0,VALID,1.097,
2011-10-14, 01:44:04,VALID,1010.491,VALID,0.0,VALID,104.0,VALID,0.0,VALID,23.538,VALID,53.0,VALID,0.67,
2011-10-14, 01:45:04,VALID,1010.486,VALID,0.0,VALID,104.0,VALID,0.0,VALID,23.538,VALID,53.0,VALID,0.384,
2011-10-14, 01:46:04,VALID,1010.463,VALID,0.0,VALID,104.0,VALID,0.0,VALID,23.519,VALID,46.0,VALID,1.011,
2011-10-14, 01:47:04,VALID,1010.422,VALID,0.0,VALID,104.0,VALID,0.0,VALID,23.519,VALID,40.0,VALID,0.392,
2011-10-14, 01:48:04,VALID,1010.436,VALID,0.0,VALID,104.0,VALID,0.0,VALID,23.519,VALID,40.0,VALID,0.3,
2011-10-14, 01:49:04,VALID,1010.42,VALID,0.0,VALID,104.0,VALID,0.0,VALID,23.52,VALID,40.0,VALID,0.169,
2011-10-14, 01:50:04,VALID,1010.386,VALID,0.0,VALID,104.0,VALID,0.0,VALID,23.499,VALID,40.0,VALID,0.222,
2011-10-14, 01:51:04,VALID,1010.38,VALID,0.0,VALID,104.0,VALID,0.0,VALID,23.499,VALID,40.0,VALID,0.608,
2011-10-14, 01:52:04,VALID,1010.344,VALID,0.0,VALID,104.0,VALID,0.0,VALID,23.499,VALID,37.0,VALID,1.04,
2011-10-14, 01:53:04,VALID,1010.305,VALID,0.0,VALID,104.0,VALID,0.0,VALID,23.48,VALID,74.0,VALID,1.106,
2011-10-14, 01:54:04,VALID,1010.343,VALID,0.0,VALID,104.0,VALID,0.0,VALID,23.48,VALID,85.0,VALID,1.325,
2011-10-14, 01:55:04,VALID,1010.311,VALID,0.0,VALID,104.0,VALID,0.0,VALID,23.48,VALID,77.0,VALID,0.812,
2011-10-14, 01:56:04,VALID,1010.327,VALID,0.0,VALID,104.0,VALID,0.0,VALID,23.48,VALID,77.0,VALID,0.765,
2011-10-14, 01:57:04,VALID,1010.292,VALID,0.0,VALID,104.0,VALID,0.0,VALID,23.501,VALID,72.0,VALID,1.469,
2011-10-14, 01:58:04,VALID,1010.268,VALID,0.0,VALID,104.0,VALID,0.0,VALID,23.48,VALID,73.0,VALID,1.009,
2011-10-14, 01:59:04,VALID,1010.245,VALID,0.0,VALID,104.0,VALID,0.0,VALID,23.439,VALID,80.0,VALID,1.114,
2011-10-14, 02:00:04,VALID,1010.242,VALID,0.0,VALID,104.0,VALID,0.0,VALID,23.48,VALID,76.0,VALID,1.328,
2011-10-14, 02:01:04,VALID,1010.231,VALID,0.0,VALID,104.0,VALID,0.0,VALID,23.46,VALID,68.0,VALID,1.29,
2011-10-14, 02:02:04,VALID,1010.222,VALID,0.0,VALID,104.0,VALID,0.0,VALID,23.46,VALID,62.0,VALID,1.059,
2011-10-14, 02:03:04,VALID,1010.213,VALID,0.0,VALID,104.0,VALID,0.0,VALID,23.46,VALID,63.0,VALID,0.626,
2011-10-14, 02:04:04,VALID,1010.241,VALID,0.0,VALID,104.0,VALID,0.0,VALID,23.46,VALID,73.0,VALID,0.988,
2011-10-14, 02:05:04,VALID,1010.222,VALID,0.0,VALID,104.0,VALID,0.0,VALID,23.46,VALID,87.0,VALID,0.912,
2011-10-14, 02:06:04,VALID,1010.185,VALID,0.0,VALID,104.0,VALID,0.0,VALID,23.441,VALID,68.0,VALID,1.26,
2011-10-14, 02:07:04,VALID,1010.184,VALID,0.0,VALID,104.0,VALID,0.0,VALID,23.441,VALID,56.0,VALID,1.354,
2011-10-14, 02:08:04,VALID,1010.173,VALID,0.0,VALID,104.0,VALID,0.0,VALID,23.421,VALID,51.0,VALID,0.95,
2011-10-14, 02:09:04,VALID,1010.172,VALID,0.0,VALID,104.0,VALID,0.0,VALID,23.421,VALID,60.0,VALID,0.61,
2011-10-14, 02:10:04,VALID,1010.163,VALID,0.0,VALID,104.0,VALID,0.0,VALID,23.421,VALID,61.0,VALID,0.534,
2011-10-14, 02:11:04,VALID,1010.159,VALID,0.0,VALID,104.0,VALID,0.0,VALID,23.441,VALID,78.0,VALID,0.808,
2011-10-14, 02:12:04,VALID,1010.131,VALID,0.0,VALID,104.0,VALID,0.0,VALID,23.421,VALID,77.0,VALID,0.689,
2011-10-14, 02:13:04,VALID,1010.107,VALID,0.0,VALID,104.0,VALID,0.0,VALID,23.402,VALID,83.0,VALID,0.85,
2011-10-14, 02:14:04,VALID,1010.125,VALID,0.0,VALID,104.0,VALID,0.0,VALID,23.421,VALID,66.0,VALID,0.678,
2011-10-14, 02:15:04,VALID,1010.088,VALID,0.0,VALID,104.0,VALID,0.0,VALID,23.421,VALID,59.0,VALID,1.239,
2011-10-14, 02:16:04,VALID,1010.068,VALID,0.0,VALID,104.0,VALID,0.0,VALID,23.402,VALID,61.0,VALID,0.594,
2011-10-14, 02:17:04,VALID,1010.074,VALID,0.0,VALID,104.0,VALID,0.0,VALID,23.402,VALID,64.0,VALID,0.984,
2011-10-14, 02:18:04,VALID,1010.046,VALID,0.0,VALID,104.0,VALID,0.0,VALID,23.402,VALID,78.0,VALID,0.642,
2011-10-14, 02:19:04,VALID,1010.041,VALID,0.0,VALID,104.0,VALID,0.0,VALID,23.402,VALID,76.0,VALID,0.502,
2011-10-14, 02:20:04,VALID,1010.037,VALID,0.0,VALID,104.0,VALID,0.0,VALID,23.382,VALID,38.0,VALID,1.168,
2011-10-14, 02:21:04,VALID,1010.035,VALID,0.0,VALID,104.0,VALID,0.0,VALID,23.363,VALID,76.0,VALID,0.751,
2011-10-14, 02:22:04,VALID,1010.002,VALID,0.0,VALID,104.0,VALID,0.0,VALID,23.363,VALID,24.0,VALID,0.796,
2011-10-14, 02:23:04,VALID,1009.994,VALID,0.0,VALID,104.0,VALID,0.0,VALID,23.343,VALID,55.0,VALID,1.023,
2011-10-14, 02:24:04,VALID,1009.978,VALID,0.0,VALID,104.0,VALID,0.0,VALID,23.342,VALID,38.0,VALID,0.468,
2011-10-14, 02:25:04,VALID,1009.994,VALID,0.0,VALID,104.0,VALID,0.0,VALID,23.363,VALID,29.0,VALID,0.663,
2011-10-14, 02:26:04,VALID,1009.977,VALID,0.0,VALID,104.0,VALID,0.0,VALID,23.343,VALID,29.0,VALID,0.783,
2011-10-14, 02:27:04,VALID,1010.007,VALID,0.0,VALID,104.0,VALID,0.0,VALID,23.343,VALID,28.0,VALID,0.429,
2011-10-14, 02:28:04,VALID,1009.985,VALID,0.0,VALID,104.0,VALID,0.0,VALID,23.324,VALID,52.0,VALID,1.359,
2011-10-14, 02:29:04,VALID,1009.986,VALID,0.0,VALID,104.0,VALID,0.0,VALID,23.365,VALID,18.0,VALID,0.551,
2011-10-14, 02:30:04,VALID,1009.988,VALID,0.0,VALID,104.0,VALID,0.0,VALID,23.343,VALID,56.0,VALID,0.535,
2011-10-14, 02:31:04,VALID,1009.993,VALID,0.0,VALID,104.0,VALID,0.0,VALID,23.343,VALID,32.0,VALID,0.752,
2011-10-14, 02:32:04,VALID,1009.983,VALID,0.0,VALID,104.0,VALID,0.0,VALID,23.365,VALID,86.0,VALID,0.696,
2011-10-14, 02:33:04,VALID,1009.965,VALID,0.0,VALID,104.0,VALID,0.0,VALID,23.324,VALID,64.0,VALID,0.339,
2011-10-14, 02:34:04,VALID,1009.962,VALID,0.0,VALID,104.0,VALID,0.0,VALID,23.343,VALID,55.0,VALID,0.389,
2011-10-14, 02:35:04,VALID,1009.972,VALID,0.0,VALID,104.0,VALID,0.0,VALID,23.343,VALID,55.0,VALID,0.435,
2011-10-14, 02:36:04,VALID,1009.947,VALID,0.0,VALID,104.0,VALID,0.0,VALID,23.343,VALID,55.0,VALID,0.597,
2011-10-14, 02:37:04,VALID,1009.961,VALID,0.0,VALID,104.0,VALID,0.0,VALID,23.343,VALID,52.0,VALID,0.595,
2011-10-14, 02:38:04,VALID,1009.952,VALID,0.0,VALID,104.0,VALID,0.0,VALID,23.343,VALID,46.0,VALID,0.252,
2011-10-14, 02:39:04,VALID,1009.925,VALID,0.0,VALID,104.0,VALID,0.0,VALID,23.324,VALID,47.0,VALID,0.125,
2011-10-14, 02:40:04,VALID,1009.934,VALID,0.0,VALID,104.0,VALID,0.0,VALID,23.343,VALID,47.0,VALID,0.259,
2011-10-14, 02:41:04,VALID,1009.914,VALID,0.0,VALID,104.0,VALID,0.0,VALID,23.324,VALID,45.0,VALID,0.551,
2011-10-14, 02:42:04,VALID,1009.898,VALID,0.0,VALID,104.0,VALID,0.0,VALID,23.343,VALID,27.0,VALID,0.571,
2011-10-14, 02:43:04,VALID,1009.931,VALID,0.0,VALID,104.0,VALID,0.0,VALID,23.324,VALID,27.0,VALID,0.273,
2011-10-14, 02:44:04,VALID,1009.922,VALID,0.0,VALID,104.0,VALID,0.0,VALID,23.324,VALID,27.0,VALID,0.284,
2011-10-14, 02:45:04,VALID,1009.892,VALID,0.0,VALID,104.0,VALID,0.0,VALID,23.304,VALID,23.0,VALID,0.403,
2011-10-14, 02:46:04,VALID,1009.896,VALID,0.0,VALID,104.0,VALID,0.0,VALID,23.304,VALID,353.0,VALID,0.682,
2011-10-14, 02:47:04,VALID,1009.887,VALID,0.0,VALID,104.0,VALID,0.0,VALID,23.304,VALID,353.0,VALID,0.11,
2011-10-14, 02:48:04,VALID,1009.903,VALID,0.0,VALID,104.0,VALID,0.0,VALID,23.304,VALID,358.0,VALID,0.129,
2011-10-14, 02:49:04,VALID,1009.878,VALID,0.0,VALID,104.0,VALID,0.0,VALID,23.304,VALID,6.0,VALID,0.522,
2011-10-14, 02:50:04,VALID,1009.896,VALID,0.0,VALID,104.0,VALID,0.0,VALID,23.283,VALID,7.0,VALID,0.009,
2011-10-14, 02:51:04,VALID,1009.877,VALID,0.0,VALID,104.0,VALID,0.0,VALID,23.304,VALID,7.0,VALID,0.069,
2011-10-14, 02:52:04,VALID,1009.863,VALID,0.0,VALID,104.0,VALID,0.0,VALID,23.304,VALID,7.0,VALID,0.135,
2011-10-14, 02:53:04,VALID,1009.834,VALID,0.0,VALID,104.0,VALID,0.0,VALID,23.304,VALID,7.0,VALID,0.269,
2011-10-14, 02:54:04,VALID,1009.843,VALID,0.0,VALID,104.0,VALID,0.0,VALID,23.285,VALID,7.0,VALID,0.065,
2011-10-14, 02:55:04,VALID,1009.831,VALID,0.0,VALID,104.0,VALID,0.112,VALID,23.285,VALID,7.0,VALID,0.206,
2011-10-14, 02:56:04,VALID,1009.837,VALID,0.0,VALID,104.0,VALID,0.0,VALID,23.285,VALID,7.0,VALID,0.012,
2011-10-14, 02:57:04,VALID,1009.825,VALID,0.0,VALID,104.0,VALID,0.0,VALID,23.265,VALID,7.0,VALID,0.0,
2011-10-14, 02:58:04,VALID,1009.827,VALID,0.0,VALID,104.0,VALID,0.0,VALID,23.265,VALID,7.0,VALID,0.0,
2011-10-14, 02:59:04,VALID,1009.818,VALID,0.0,VALID,104.0,VALID,0.0,VALID,23.246,VALID,7.0,VALID,0.0,
2011-10-14, 03:00:04,VALID,1009.85,VALID,0.0,VALID,104.0,VALID,0.0,VALID,23.246,VALID,7.0,VALID,0.0,
2011-10-14, 03:01:04,VALID,1009.867,VALID,0.0,VALID,104.0,VALID,0.0,VALID,23.265,VALID,39.0,VALID,0.611,
2011-10-14, 03:02:04,VALID,1009.859,VALID,0.0,VALID,104.0,VALID,0.0,VALID,23.265,VALID,45.0,VALID,0.174,
2011-10-14, 03:03:04,VALID,1009.868,VALID,0.0,VALID,104.0,VALID,0.0,VALID,23.265,VALID,45.0,VALID,0.136,
2011-10-14, 03:04:04,VALID,1009.885,VALID,0.0,VALID,104.0,VALID,0.0,VALID,23.265,VALID,45.0,VALID,0.052,
2011-10-14, 03:05:04,VALID,1009.852,VALID,0.0,VALID,104.0,VALID,0.0,VALID,23.265,VALID,45.0,VALID,0.0,
2011-10-14, 03:06:04,VALID,1009.863,VALID,0.0,VALID,104.0,VALID,0.0,VALID,23.285,VALID,45.0,VALID,0.0,
2011-10-14, 03:07:04,VALID,1009.845,VALID,0.0,VALID,104.0,VALID,0.0,VALID,23.285,VALID,45.0,VALID,0.0,
2011-10-14, 03:08:04,VALID,1009.824,VALID,0.0,VALID,104.0,VALID,0.0,VALID,23.285,VALID,45.0,VALID,0.0,
2011-10-14, 03:09:04,VALID,1009.82,VALID,0.0,VALID,104.0,VALID,0.0,VALID,23.265,VALID,45.0,VALID,0.095,
2011-10-14, 03:10:04,VALID,1009.811,VALID,0.0,VALID,104.0,VALID,0.0,VALID,23.265,VALID,45.0,VALID,0.129,
2011-10-14, 03:11:04,VALID,1009.796,VALID,0.0,VALID,104.0,VALID,0.0,VALID,23.265,VALID,45.0,VALID,0.0,
2011-10-14, 03:12:04,VALID,1009.785,VALID,0.0,VALID,104.0,VALID,0.0,VALID,23.265,VALID,45.0,VALID,0.229,
2011-10-14, 03:13:04,VALID,1009.797,VALID,0.0,VALID,104.0,VALID,0.0,VALID,23.265,VALID,45.0,VALID,0.227,
2011-10-14, 03:14:04,VALID,1009.768,VALID,0.0,VALID,104.0,VALID,0.0,VALID,23.287,VALID,45.0,VALID,0.086,
2011-10-14, 03:15:04,VALID,1009.803,VALID,0.0,VALID,104.0,VALID,0.0,VALID,23.265,VALID,45.0,VALID,0.167,
2011-10-14, 03:16:04,VALID,1009.799,VALID,0.0,VALID,104.0,VALID,0.0,VALID,23.265,VALID,45.0,VALID,0.154,
2011-10-14, 03:17:04,VALID,1009.796,VALID,0.0,VALID,104.0,VALID,0.0,VALID,23.285,VALID,45.0,VALID,0.391,
2011-10-14, 03:18:04,VALID,1009.803,VALID,0.0,VALID,104.0,VALID,0.0,VALID,23.304,VALID,45.0,VALID,0.486,
2011-10-14, 03:19:04,VALID,1009.762,VALID,0.0,VALID,104.0,VALID,0.0,VALID,23.304,VALID,45.0,VALID,0.411,
2011-10-14, 03:20:04,VALID,1009.77,VALID,0.0,VALID,104.0,VALID,0.0,VALID,23.304,VALID,91.0,VALID,0.866,
2011-10-14, 03:21:04,VALID,1009.745,VALID,0.0,VALID,104.0,VALID,0.0,VALID,23.304,VALID,90.0,VALID,0.582,
2011-10-14, 03:22:04,VALID,1009.749,VALID,0.0,VALID,104.0,VALID,0.0,VALID,23.304,VALID,90.0,VALID,0.214,
2011-10-14, 03:23:04,VALID,1009.702,VALID,0.0,VALID,104.0,VALID,0.0,VALID,23.304,VALID,90.0,VALID,0.35,
2011-10-14, 03:24:04,VALID,1009.688,VALID,0.0,VALID,104.0,VALID,0.0,VALID,23.303,VALID,90.0,VALID,0.427,
2011-10-14, 03:25:04,VALID,1009.658,VALID,0.5,VALID,104.0,VALID,0.0,VALID,23.304,VALID,90.0,VALID,0.266,
2011-10-14, 03:26:04,VALID,1009.627,VALID,0.0,VALID,104.0,VALID,0.0,VALID,23.304,VALID,90.0,VALID,0.32,
2011-10-14, 03:27:04,VALID,1009.648,VALID,0.0,VALID,104.0,VALID,0.0,VALID,23.304,VALID,88.0,VALID,0.403,
2011-10-14, 03:28:04,VALID,1009.584,VALID,0.0,VALID,104.0,VALID,0.0,VALID,23.304,VALID,70.0,VALID,0.418,
2011-10-14, 03:29:04,VALID,1009.593,VALID,0.0,VALID,104.0,VALID,0.0,VALID,23.285,VALID,70.0,VALID,0.232,
2011-10-14, 03:30:04,VALID,1009.57,VALID,0.0,VALID,104.0,VALID,0.0,VALID,23.285,VALID,26.0,VALID,0.691,
2011-10-14, 03:31:04,VALID,1009.525,VALID,0.0,VALID,104.0,VALID,0.0,VALID,23.287,VALID,26.0,VALID,0.328,
2011-10-14, 03:32:04,VALID,1009.539,VALID,0.0,VALID,104.0,VALID,0.0,VALID,23.285,VALID,26.0,VALID,0.22,
2011-10-14, 03:33:04,VALID,1009.532,VALID,0.0,VALID,104.0,VALID,0.0,VALID,23.285,VALID,26.0,VALID,0.293,
2011-10-14, 03:34:04,VALID,1009.512,VALID,0.0,VALID,104.0,VALID,0.0,VALID,23.246,VALID,26.0,VALID,0.177,
2011-10-14, 03:35:04,VALID,1009.479,VALID,0.0,VALID,104.0,VALID,0.0,VALID,23.265,VALID,26.0,VALID,0.148,
2011-10-14, 03:36:04,VALID,1009.51,VALID,0.0,VALID,104.0,VALID,0.0,VALID,23.246,VALID,26.0,VALID,0.0,
2011-10-14, 03:37:04,VALID,1009.525,VALID,0.0,VALID,104.0,VALID,0.0,VALID,23.246,VALID,26.0,VALID,0.004,
2011-10-14, 03:38:04,VALID,1009.524,VALID,0.0,VALID,104.0,VALID,0.0,VALID,23.226,VALID,26.0,VALID,0.0,
2011-10-14, 03:39:04,VALID,1009.543,VALID,0.0,VALID,104.0,VALID,0.0,VALID,23.246,VALID,25.0,VALID,0.0,
2011-10-14, 03:40:04,VALID,1009.563,VALID,0.0,VALID,104.0,VALID,0.0,VALID,23.225,VALID,26.0,VALID,0.07,
2011-10-14, 03:41:04,VALID,1009.56,VALID,0.0,VALID,104.0,VALID,0.0,VALID,23.246,VALID,26.0,VALID,0.281,
2011-10-14, 03:42:04,VALID,1009.549,VALID,0.0,VALID,104.0,VALID,0.0,VALID,23.226,VALID,26.0,VALID,0.136,
2011-10-14, 03:43:04,VALID,1009.544,VALID,0.0,VALID,104.0,VALID,0.112,VALID,23.225,VALID,26.0,VALID,0.0,